Regional Weather Roundup
Issued by NWS New Orleans/Baton Rouge, LA

Home | Current Version | Previous Version | Text Only | Print | Product List | Glossary Off
Versions: 1 2 3 4 5 6 7 8 9 10 11 12 13 14 15 16 17 18 19 20 21 22 23 24 25 26 27 28 29 30 31 32 33 34 35 36 37 38 39 40 41 42 43 44 45 46 47 48 49 50

096
ASUS44 KLIX 250101
RWRLIX
NEW ORLEANS REGIONAL WEATHER ROUNDUP
NATIONAL WEATHER SERVICE NEW ORLEANS LA
800 PM CDT THU APR 24 2014

NOTE: "FAIR" INDICATES FEW OR NO CLOUDS BELOW 12,000 FEET WITH NO
      SIGNIFICANT WEATHER AND/OR OBSTRUCTIONS TO VISIBILITY.
      SKY/WX - SKY CONDITION AND SIGNIFICANT WEATHER.
      TMP - AIR TEMPERATURE.     DP    - DEWPOINT TEMPERATURE.
      RH  - RELATIVE HUMIDITY.   PRES  - PRESSURE.
      HI  - HEAT INDEX.          WCI   - WIND CHILL INDEX.

*  THESE STATIONS ARE NOT NWS OR FAA STATIONS AND ARE NOT UNDER
   NWS QUALITY CONTROL.

LAZ038-040-048-061>063-065>067-069-250200-
SOUTHEAST LOUISIANA

CITY           SKY/WX    TMP DP  RH WIND       PRES   REMARKS
N.O. AUDUBON     N/A     74  66  75 MISG        N/A
N.O. INTL ARPT PTCLDY    73  66  78 S9        29.90R
N.O. LAKEFRONT MOCLDY    74  66  76 S13       29.91R
N.O. DOWNTOWN* MOCLDY    77  63  61 S8        29.91R
SLIDELL        MOCLDY    75  65  70 S7        29.89R
BATON ROUGE    PTCLDY    76  63  64 S14       29.87R
BOOTHVILLE     MOCLDY    72  68  87 S10       29.92R
BELLE CHASSE   MOCLDY    73  65  75 SW6       29.90S
BOGALUSA*        N/A     75  65  71 S9        29.89S
GALLIANO*      NOT AVBL
NEW ROADS*     NOT AVBL
GONZALES*        N/A     74  65  75 S6        29.88S
HAMMOND*       NOT AVBL
HOUMA*           N/A     73  64  75 S5        29.90S
PORT FOURCHON* MOCLDY    73  68  83 VRB7      29.93R

$$

MSZ070-080>082-250200-
SOUTHERN MISSISSIPPI

CITY           SKY/WX    TMP DP  RH WIND       PRES   REMARKS
MCCOMB         PTCLDY    74  65  73 S9        29.85S
GULFPORT       MOCLDY    74  66  76 S6        29.91R
BILOXI         MOCLDY    73  67  82 S10       29.91R
PASCAGOULA     PTCLDY    69  64  84 S3        29.92R

$$

COASTAL OBSERVATIONS
LAKE AND NEARSHORE STATIONS

STATION/POSITION TIME  TEMP    WIND        PRES    WAVE
                       AIR SEA DIR/SP/G            HT/PER
                 (UTC) (F)     (DEG/KT/KT) (MB)    (FT/S)
PASCAGOULA       0000   72     160/  9/ 12 1011.8
WAVELAND YACHT   0000   72 79  210/  7/  9 1012.0
GRAND ISLE       0000   73 72  200/  7/ 10 1013.5
SOUTHWEST PASS   0000   71 62  160/ 11/ 14 1012.8
NEW CANAL        0000   75 73  210/  9/ 14 1012.8
SHELL BEACH      0000   73 70  200/ 10/ 12 1012.7

OFFSHORE STATIONS

STATION/POSITION TIME  TEMP    WIND        PRES    WAVE
                       AIR SEA DIR/SP/G            HT/PER
                 (UTC) (F)     (DEG/KT/KT) (MB)    (FT/S)
64 S DAUPHIN ISL 0046   72 73  160/ 12/ 14 1013.1

$$




USA.gov is the U.S. government's official web portal to all federal, state and local government web resources and services.